TimeEDT,TemperatureF,Dew PointF,Humidity,Sea Level PressureIn,VisibilityMPH,Wind Direction,Wind SpeedMPH,Gust SpeedMPH,PrecipitationIn,Events,Conditions,WindDirDegrees,DateUTC
12:15 AM,44.6,41.0,87,29.96,10.0,Calm,Calm,-,N/A,,Overcast,0,2013-04-13 04:15:00
12:35 AM,46.4,41.0,81,29.97,10.0,Calm,Calm,-,N/A,,Overcast,0,2013-04-13 04:35:00
12:55 AM,46.4,41.0,81,29.97,10.0,Calm,Calm,-,N/A,,Overcast,0,2013-04-13 04:55:00
1:15 AM,46.4,41.0,81,29.98,10.0,Calm,Calm,-,N/A,,Overcast,0,2013-04-13 05:15:00
1:35 AM,46.4,41.0,81,29.98,10.0,Calm,Calm,-,N/A,,Overcast,0,2013-04-13 05:35:00
1:55 AM,44.6,41.0,87,29.98,10.0,Calm,Calm,-,N/A,,Mostly Cloudy,0,2013-04-13 05:55:00
2:15 AM,44.6,41.0,87,29.98,10.0,Calm,Calm,-,N/A,,Mostly Cloudy,0,2013-04-13 06:15:00
2:35 AM,42.8,41.0,93,29.97,10.0,Calm,Calm,-,N/A,,Overcast,0,2013-04-13 06:35:00
2:55 AM,41.0,41.0,100,29.98,10.0,Calm,Calm,-,N/A,,Overcast,0,2013-04-13 06:55:00
3:15 AM,41.0,41.0,100,29.98,10.0,Calm,Calm,-,N/A,,Overcast,0,2013-04-13 07:15:00
3:35 AM,41.0,41.0,100,29.98,10.0,Calm,Calm,-,N/A,,Overcast,0,2013-04-13 07:35:00
3:55 AM,41.0,41.0,100,29.98,10.0,Calm,Calm,-,N/A,,Overcast,0,2013-04-13 07:55:00
4:15 AM,41.0,41.0,100,29.99,10.0,Calm,Calm,-,N/A,,Overcast,0,2013-04-13 08:15:00
4:35 AM,39.2,39.2,100,29.99,10.0,Calm,Calm,-,N/A,,Mostly Cloudy,0,2013-04-13 08:35:00
4:55 AM,39.2,39.2,100,29.99,10.0,Calm,Calm,-,N/A,,Partly Cloudy,0,2013-04-13 08:55:00
5:15 AM,39.2,39.2,100,30.00,10.0,Calm,Calm,-,N/A,,Unknown,0,2013-04-13 09:15:00
5:35 AM,37.4,37.4,100,30.00,10.0,Calm,Calm,-,N/A,,Unknown,0,2013-04-13 09:35:00
5:55 AM,37.4,37.4,100,29.99,10.0,Calm,Calm,-,N/A,,Scattered Clouds,0,2013-04-13 09:55:00
6:15 AM,37.4,37.4,100,30.01,10.0,Calm,Calm,-,N/A,,Clear,0,2013-04-13 10:15:00
6:35 AM,35.6,35.6,100,30.01,10.0,Calm,Calm,-,N/A,,Unknown,0,2013-04-13 10:35:00
6:55 AM,37.4,37.4,100,30.01,10.0,Calm,Calm,-,N/A,,Clear,0,2013-04-13 10:55:00
7:15 AM,37.4,37.4,100,30.02,10.0,Calm,Calm,-,N/A,,Clear,0,2013-04-13 11:15:00
7:35 AM,37.4,37.4,100,30.03,10.0,Calm,Calm,-,N/A,,Clear,0,2013-04-13 11:35:00
8:15 AM,41.0,39.2,93,30.04,10.0,Calm,Calm,-,N/A,,Clear,0,2013-04-13 12:15:00
8:55 AM,44.6,41.0,87,30.06,10.0,Calm,Calm,-,N/A,,Clear,0,2013-04-13 12:55:00
9:15 AM,48.2,39.2,71,30.06,10.0,SSW,4.6,-,N/A,,Clear,200,2013-04-13 13:15:00
9:35 AM,50.0,39.2,66,30.07,10.0,SW,4.6,-,N/A,,Clear,220,2013-04-13 13:35:00
9:55 AM,53.6,37.4,54,30.07,10.0,West,9.2,-,N/A,,Clear,270,2013-04-13 13:55:00
10:15 AM,53.6,37.4,54,30.07,10.0,West,10.4,-,N/A,,Clear,260,2013-04-13 14:15:00
10:35 AM,53.6,37.4,54,30.07,10.0,West,5.8,-,N/A,,Clear,270,2013-04-13 14:35:00
10:55 AM,55.4,35.6,47,30.07,10.0,WSW,9.2,-,N/A,,Clear,240,2013-04-13 14:55:00
11:15 AM,55.4,35.6,47,30.08,10.0,WSW,9.2,-,N/A,,Clear,250,2013-04-13 15:15:00
11:35 AM,57.2,35.6,44,30.08,10.0,WSW,8.1,-,N/A,,Clear,250,2013-04-13 15:35:00
11:55 AM,57.2,35.6,44,30.08,10.0,SW,12.7,-,N/A,,Clear,230,2013-04-13 15:55:00
12:15 PM,57.2,35.6,44,30.08,10.0,West,8.1,-,N/A,,Clear,260,2013-04-13 16:15:00
12:35 PM,59.0,33.8,39,30.08,10.0,WSW,10.4,-,N/A,,Clear,240,2013-04-13 16:35:00
12:55 PM,59.0,33.8,39,30.07,10.0,WSW,13.8,19.6,N/A,,Clear,240,2013-04-13 16:55:00
1:15 PM,60.8,32.0,34,30.07,10.0,West,9.2,-,N/A,,Clear,260,2013-04-13 17:15:00
1:35 PM,62.6,32.0,32,30.06,10.0,WSW,9.2,-,N/A,,Clear,250,2013-04-13 17:35:00
1:55 PM,62.6,32.0,32,30.06,10.0,West,10.4,-,N/A,,Clear,260,2013-04-13 17:55:00
2:15 PM,64.4,28.4,26,30.06,10.0,WNW,11.5,17.3,N/A,,Clear,290,2013-04-13 18:15:00
2:35 PM,64.4,30.2,28,30.05,10.0,WNW,10.4,-,N/A,,Clear,290,2013-04-13 18:35:00
2:55 PM,64.4,28.4,26,30.05,10.0,West,6.9,17.3,N/A,,Clear,280,2013-04-13 18:55:00
3:15 PM,66.2,32.0,28,30.04,10.0,WSW,12.7,-,N/A,,Clear,250,2013-04-13 19:15:00
3:35 PM,66.2,28.4,24,30.03,10.0,West,9.2,-,N/A,,Clear,270,2013-04-13 19:35:00
3:55 PM,64.4,28.4,26,30.03,10.0,WSW,8.1,-,N/A,,Clear,240,2013-04-13 19:55:00
4:15 PM,66.2,32.0,28,30.02,10.0,West,5.8,-,N/A,,Clear,280,2013-04-13 20:15:00
4:35 PM,66.2,30.2,26,30.02,10.0,WSW,11.5,16.1,N/A,,Clear,250,2013-04-13 20:35:00
4:55 PM,66.2,30.2,26,30.02,10.0,West,10.4,16.1,N/A,,Clear,260,2013-04-13 20:55:00
5:15 PM,68.0,32.0,26,30.02,10.0,West,6.9,-,N/A,,Clear,280,2013-04-13 21:15:00
5:35 PM,66.2,32.0,28,30.03,10.0,West,8.1,-,N/A,,Clear,270,2013-04-13 21:35:00
5:55 PM,66.2,32.0,28,30.03,10.0,West,4.6,-,N/A,,Clear,280,2013-04-13 21:55:00
6:15 PM,66.2,28.4,24,30.03,10.0,WSW,9.2,16.1,N/A,,Clear,250,2013-04-13 22:15:00
6:35 PM,66.2,30.2,26,30.02,10.0,WSW,10.4,-,N/A,,Clear,250,2013-04-13 22:35:00
6:55 PM,66.2,32.0,28,30.02,10.0,West,8.1,-,N/A,,Clear,280,2013-04-13 22:55:00
7:15 PM,64.4,32.0,30,30.03,10.0,West,4.6,-,N/A,,Clear,270,2013-04-13 23:15:00
7:35 PM,62.6,32.0,32,30.03,10.0,WNW,6.9,-,N/A,,Clear,290,2013-04-13 23:35:00
7:55 PM,62.6,32.0,32,30.03,10.0,West,4.6,-,N/A,,Clear,260,2013-04-13 23:55:00
8:15 PM,59.0,32.0,36,30.04,10.0,Calm,Calm,-,N/A,,Clear,0,2013-04-14 00:15:00
8:35 PM,55.4,33.8,44,30.04,10.0,Calm,Calm,-,N/A,,Unknown,0,2013-04-14 00:35:00
8:55 PM,53.6,35.6,51,30.05,10.0,Calm,Calm,-,N/A,,Unknown,0,2013-04-14 00:55:00
9:15 PM,53.6,37.4,54,30.06,10.0,Calm,Calm,-,N/A,,Unknown,0,2013-04-14 01:15:00
9:35 PM,51.8,35.6,54,30.06,10.0,Calm,Calm,-,N/A,,Clear,0,2013-04-14 01:35:00
9:55 PM,50.0,37.4,62,30.07,10.0,Calm,Calm,-,N/A,,Clear,0,2013-04-14 01:55:00
10:15 PM,50.0,37.4,62,30.08,10.0,Calm,Calm,-,N/A,,Clear,0,2013-04-14 02:15:00
10:35 PM,48.2,37.4,66,30.08,10.0,Calm,Calm,-,N/A,,Clear,0,2013-04-14 02:35:00
10:55 PM,46.4,37.4,71,30.08,10.0,Calm,Calm,-,N/A,,Clear,0,2013-04-14 02:55:00
11:15 PM,46.4,37.4,71,30.08,10.0,Calm,Calm,-,N/A,,Unknown,0,2013-04-14 03:15:00
11:35 PM,44.6,37.4,76,30.08,10.0,Calm,Calm,-,N/A,,Unknown,0,2013-04-14 03:35:00
11:55 PM,44.6,37.4,76,30.08,10.0,Calm,Calm,-,N/A,,Unknown,0,2013-04-14 03:55:00